Location: Bettgenhausen
(50.6463°N, 7.5681°E)
Time: 06:32:15
(UTC+00:00)

ATLAS 3B R/B - Pass Details

Date: 27 February 2020
Orbit: 1029 x 1166 km, 63.8° (Epoch: 12 March)

Event Time Altitude Azimuth Distance (km) Brightness Sun altitude
Rises 19:24:47 0° 313° (NW) 3,794 6.6 -22.5°
Reaches altitude 10° 19:27:30 10° 320° (NW) 2,848 5.7 -22.9°
Maximum altitude 19:33:59 48° 34° (NNE) 1,354 3.1 -23.9°
Enters shadow 19:35:30 41° 69° (ENE) 1,483 3.0 -24.1°
